Location: L�Ave Maria
(50.7161°N, 1.5911°E)
Time: 00:14:09
(UTC+00:00)

Cosmos 1782 - Pass Details

Date: 10 July 2020
Orbit: 536 x 553 km, 82.5° (Epoch: 03 August)

Event Time Altitude Azimuth Distance (km) Brightness Sun altitude
Rises 23:20:53 0° 349° (N) 2,702 8.2 -16.7°
Reaches altitude 10° 23:23:03 10° 349° (NNW) 1,805 6.8 -16.8°
Maximum altitude 23:27:01 85° 262° (W) 546 2.7 -16.9°
Enters shadow 23:28:30 37° 175° (S) 844 3.2 -16.9°
